Wind_Speed
4 4 4 3 3 4 4 4 4 4 4 4 4 4 4 4 3 3 3 2 2 1 2 2 4 4 5 6 6 8 9 10 7 4 2 1 4 5 4 4 3 3 2 1 2 4 4 3 0 2 2 1 1 1 0 1 1 2 2 3 2 2 2 2 3 2 2 5 6 4 1 3 2 3 3 2 5 6 4 4 7 7 9 8 6 6 7 8
4 4 4 4 4 4 4 4 4 3 4 4 4 4 4 4 3 3 2 3 3 2 3 3 4 4 5 6 7 9 11 10 5 1 2 3 6 6 5 6 4 3 2 3 4 5 4 1 1 3 2 1 0 0 1 1 2 2 2 3 0 2 3 3 2 4 2 3 5 3 1 2 3 2 1 4 4 5 5 6 8 7 9 7 8 7 8 9
4 3 3 3 4 4 4 4 4 3 3 4 4 3 3 3 3 3 3 3 3 3 3 3 4 4 6 6 7 9 11 8 4 1 3 5 7 5 5 6 4 3 3 3 4 4 4 2 2 3 3 1 1 1 2 1 2 1 2 3 2 4 4 3 3 4 3 3 2 2 2 3 3 2 2 5 6 6 2 4 5 6 7 5 7 8 8 8
4 4 3 3 3 3 3 4 4 4 4 4 4 3 3 3 3 4 4 3 3 3 3 3 3 4 5 6 7 9 9 6 2 4 4 6 6 5 6 5 4 3 3 2 2 1 2 2 2 3 3 1 2 1 1 2 2 1 2 2 5 3 3 4 3 4 4 2 1 1 0 4 2 2 5 5 8 5 4 7 4 4 6 5 6 7 7 7
6 5 4 4 3 3 3 4 4 4 4 4 4 4 3 3 3 3 3 3 3 3 3 3 4 4 5 6 7 8 7 4 2 5 5 6 5 5 5 5 3 4 3 1 1 0 2 2 2 3 3 1 1 2 1 4 3 1 1 4 5 1 1 5 3 3 3 1 1 2 3 2 0 3 5 6 7 1 5 6 5 5 6 5 5 5 5 6
7 6 6 5 4 5 5 5 5 5 5 5 5 4 4 3 2 3 3 3 3 3 3 3 3 4 4 5 6 6 6 2 3 5 7 6 5 5 4 4 3 4 2 2 1 2 3 2 4 3 3 2 1 1 2 3 2 2 2 3 2 1 1 4 3 2 1 2 3 3 2 2 4 6 4 4 3 4 4 3 4 5 4 4 4 4 5 6
8 7 7 6 6 6 6 6 6 6 6 6 6 5 5 4 3 3 3 3 3 2 2 3 3 3 3 4 4 3 5 1 3 7 7 6 5 4 4 4 3 3 1 3 2 3 2 3 4 2 3 3 1 1 2 1 3 4 0 4 2 1 1 1 3 3 3 5 4 2 3 5 8 5 3 3 3 6 5 4 4 4 4 3 3 4 5 6
9 9 8 7 7 7 7 7 7 7 7 7 6 6 6 6 4 3 3 3 3 2 3 3 3 2 1 2 4 3 4 1 3 6 8 6 5 5 4 3 2 2 2 4 3 3 2 4 3 2 4 1 1 1 1 2 4 4 1 4 2 1 3 2 2 4 6 6 4 3 6 8 7 2 3 4 5 5 5 4 4 3 3 3 4 5 5 5
9 9 9 8 8 7 8 8 8 8 8 7 7 7 6 5 4 3 3 3 3 3 3 3 3 2 1 1 3 4 2 3 3 4 7 6 5 6 4 3 3 2 3 3 2 4 2 3 1 1 4 2 1 0 1 4 2 1 1 2 2 3 4 4 5 7 6 5 4 6 9 8 3 2 4 4 5 5 5 4 3 3 3 3 4 5 5 5
11 10 9 9 8 8 8 8 9 8 8 8 7 7 6 5 4 4 3 3 3 3 3 4 3 3 2 3 4 4 1 4 3 3 5 6 6 5 5 4 4 4 4 2 3 4 2 3 1 1 4 1 1 0 0 3 1 2 2 3 6 6 5 5 6 6 5 5 6 8 9 4 5 4 4 5 6 6 5 4 3 2 2 4 3 4 5 5
12 11 10 9 8 8 8 8 9 8 8 7 7 6 6 5 4 4 3 4 4 3 4 3 3 3 2 4 6 4 2 4 3 4 5 6 6 5 6 6 5 4 4 3 3 2 2 2 0 1 2 1 2 2 1 1 2 1 3 6 7 8 7 7 7 5 4 4 6 8 6 4 6 5 2 7 8 6 5 4 3 2 2 3 2 3 3 4
13 12 11 10 9 8 7 8 8 8 8 7 7 6 6 5 4 4 4 4 4 4 4 3 4 4 3 6 6 2 3 5 4 5 5 5 6 6 6 6 6 4 4 4 3 2 2 1 3 3 1 0 2 2 1 1 1 2 3 6 6 8 9 8 6 4 4 3 4 6 5 6 10 6 6 8 7 6 5 4 4 3 2 2 2 2 2 3
15 13 12 11 10 9 9 7 7 8 8 7 7 6 6 5 4 4 3 4 4 3 4 4 4 3 3 5 2 3 5 5 5 5 5 5 4 5 5 5 5 5 4 4 2 4 3 2 3 3 2 3 2 2 2 3 1 3 4 5 6 8 7 7 5 4 5 3 5 5 5 6 11 8 8 8 7 7 6 5 4 3 3 2 2 2 2 3
16 15 13 12 10 10 11 10 8 8 8 7 6 6 6 5 4 4 3 4 3 4 4 4 5 4 3 3 2 3 6 6 5 5 6 6 4 3 3 3 4 5 3 2 4 5 4 3 1 1 2 3 1 3 3 4 3 4 4 4 5 7 3 7 6 5 5 4 6 7 6 3 8 9 7 6 7 8 7 6 5 3 3 2 2 2 2 3
16 16 15 13 10 10 13 15 12 9 8 6 5 6 5 4 3 3 3 3 3 4 4 4 6 4 4 3 1 2 6 6 6 7 8 7 5 4 4 4 4 4 3 4 6 7 5 3 3 2 3 1 2 3 5 5 5 4 4 4 5 4 3 7 6 5 3 3 7 8 5 2 8 9 7 5 6 8 7 6 5 4 3 3 2 3 2 3
17 16 15 13 11 11 14 16 15 10 8 6 5 5 4 3 2 2 3 2 2 4 4 3 6 3 5 3 2 2 4 6 7 9 10 9 6 4 7 7 6 5 5 6 7 7 4 3 1 1 1 2 4 5 5 5 5 5 5 6 5 5 4 4 5 3 2 3 8 9 6 3 6 9 7 5 7 8 7 6 5 4 4 3 3 3 2 3
19 17 16 14 11 11 13 14 14 9 7 5 3 3 2 2 2 3 2 3 4 4 2 1 4 4 4 1 2 3 4 6 8 8 10 10 6 6 9 7 6 6 7 7 5 5 3 3 1 1 3 4 5 4 4 5 5 5 5 5 7 7 6 4 3 4 4 4 7 9 9 8 5 11 8 7 7 8 8 7 6 5 4 3 3 3 3 3
19 18 18 15 12 12 14 15 14 8 6 4 3 2 1 2 3 2 3 4 5 4 0 2 4 4 4 4 3 2 5 6 7 7 9 10 8 7 7 4 6 8 8 5 4 5 4 3 3 4 5 5 6 6 6 7 6 6 4 4 6 6 7 8 3 4 6 6 7 8 10 11 6 11 9 8 8 8 7 6 5 5 4 3 3 3 3 3
19 19 18 13 11 13 14 15 13 8 7 3 3 3 4 2 2 3 4 4 4 4 1 4 8 3 0 5 5 6 7 8 7 6 7 9 9 7 5 5 7 7 6 5 5 7 5 3 4 6 6 7 9 9 10 10 8 7 6 6 7 6 7 7 1 4 3 5 8 11 11 13 9 9 10 9 8 8 7 5 5 4 4 3 3 3 2 3
19 19 18 13 12 14 14 14 11 9 7 3 3 3 3 3 3 4 6 7 9 9 3 3 10 5 1 5 7 8 8 7 4 4 8 9 10 9 6 5 6 5 6 6 6 5 3 5 6 8 9 9 11 14 13 9 5 5 6 7 8 8 9 6 2 5 2 4 8 11 12 14 13 9 10 10 8 8 8 7 6 5 4 4 4 3 3 3
20 19 18 16 15 16 15 12 9 11 8 5 5 5 3 3 4 2 3 8 14 16 11 5 5 4 1 5 8 9 5 3 3 4 9 10 10 9 7 7 6 6 7 6 4 3 3 7 10 12 11 7 7 12 12 7 5 7 7 7 8 8 9 6 3 5 3 3 8 11 13 13 15 11 9 11 9 9 9 9 8 7 5 4 4 5 4 3
21 20 18 17 15 15 14 10 9 12 9 6 9 9 5 4 2 3 1 5 11 16 15 8 3 4 3 6 8 8 2 5 5 6 11 11 10 9 7 9 9 7 7 6 3 3 6 9 13 12 6 1 1 4 7 8 8 8 6 7 8 6 8 6 4 5 3 3 6 9 11 11 14 11 9 11 10 8 7 6 5 6 7 5 5 5 5 5
22 19 17 17 14 14 13 10 9 12 10 10 12 11 7 5 1 4 2 6 6 10 12 11 10 11 8 5 8 9 6 9 8 9 14 12 9 8 7 9 10 8 8 10 8 7 7 7 11 10 4 4 4 4 6 7 7 8 6 6 7 6 6 6 3 4 4 4 6 7 8 10 12 8 9 9 7 6 5 4 4 4 5 6 6 5 6 7
22 20 19 17 14 16 13 9 11 14 13 14 16 14 6 2 2 1 2 5 6 6 8 9 8 11 11 6 10 13 9 10 8 9 17 15 9 6 8 10 11 10 9 13 14 13 10 2 2 7 7 7 8 6 8 7 6 8 9 8 8 8 7 7 2 0 4 7 6 6 8 9 12 13 9 6 4 5 5 6 6 6 5 5 5 5 6 6
23 22 21 18 16 18 13 8 13 15 13 15 18 18 11 4 2 1 3 4 7 4 3 5 4 8 10 8 12 12 7 10 7 7 17 16 9 7 6 7 8 11 12 14 14 14 11 2 4 7 7 8 9 7 9 8 7 8 10 12 12 11 10 10 6 3 6 7 5 4 8 6 5 11 9 7 5 7 7 9 9 10 8 7 7 7 6 6
25 24 23 20 19 20 13 6 12 14 13 15 16 14 14 9 3 1 2 4 8 4 5 6 7 9 11 11 13 8 3 9 2 6 15 11 5 4 5 6 5 8 10 11 9 7 4 4 4 7 6 8 8 8 9 9 8 7 4 7 10 11 10 10 8 3 5 6 2 4 7 5 3 5 6 7 7 8 8 9 10 10 9 9 9 8 8 7
27 26 25 23 23 23 14 4 11 14 10 11 13 13 14 13 7 3 2 5 8 5 7 4 4 7 9 10 14 9 2 4 6 5 8 6 4 2 5 8 5 4 3 3 5 3 5 7 5 6 7 8 8 8 9 9 8 5 2 1 4 7 8 9 8 6 6 6 2 6 6 7 7 4 6 6 7 8 8 9 9 9 9 10 9 9 9 8
28 29 27 25 26 27 17 7 10 15 11 5 6 13 15 14 10 4 3 7 4 6 6 2 2 4 5 7 12 8 1 4 6 3 2 1 4 2 7 11 8 8 7 6 7 2 4 8 9 10 9 8 7 5 6 11 8 2 3 2 1 2 5 6 6 6 6 6 5 7 6 5 8 4 6 7 7 8 10 11 11 11 11 11 10 10 10 9
29 31 30 28 27 29 23 12 9 13 17 10 4 11 16 12 8 2 3 6 2 4 3 3 4 4 7 8 8 5 3 2 1 1 3 1 2 0 5 9 8 9 10 11 9 1 2 2 4 8 9 7 4 3 2 7 6 2 5 4 4 2 1 3 5 5 5 7 8 8 8 6 8 4 6 5 5 8 9 10 12 12 12 12 11 11 11 9
31 32 32 30 29 31 27 17 12 12 16 14 8 11 15 8 4 4 6 7 3 4 3 4 5 6 11 12 7 5 3 2 3 4 5 4 3 2 2 2 5 6 7 9 8 1 3 2 1 3 4 2 5 7 5 1 3 7 6 4 4 3 2 2 4 3 5 9 9 10 13 9 6 4 6 5 4 7 8 10 11 13 14 13 12 12 11 10
34 34 34 34 32 33 26 15 17 18 12 10 9 13 12 3 1 7 8 3 1 3 5 5 6 10 15 14 8 8 7 3 6 9 6 5 6 6 4 3 3 4 5 7 7 4 4 3 2 2 1 3 6 5 4 3 3 6 5 4 4 3 3 3 4 4 7 9 4 5 9 12 8 4 3 4 4 5 8 11 14 16 16 15 12 12 12 10
37 36 38 38 34 33 27 17 23 23 9 7 12 11 6 3 3 8 6 4 1 5 8 8 9 11 15 12 6 8 9 6 8 10 8 8 8 8 10 8 7 6 6 7 7 4 5 7 6 4 1 4 6 4 3 2 3 5 5 6 5 4 4 5 5 6 7 5 2 2 3 8 10 8 6 3 6 6 6 9 14 17 17 16 14 13 12 10
40 38 39 40 36 35 29 20 24 24 12 10 12 5 2 5 8 12 10 5 1 2 6 9 11 12 14 10 5 8 7 5 9 10 8 10 8 9 12 11 11 8 4 6 7 4 3 6 8 6 2 7 11 8 5 4 6 9 8 8 7 6 6 7 6 6 6 2 2 2 2 4 6 8 10 6 5 5 4 5 12 17 17 16 15 13 11 11
42 40 40 41 40 37 30 24 25 26 20 13 8 5 6 9 12 13 13 9 3 3 5 9 11 11 12 8 6 10 6 4 11 9 7 9 8 8 11 13 16 10 2 4 6 6 6 4 8 11 5 10 15 11 8 7 8 10 9 8 8 7 6 7 5 5 4 1 2 2 3 5 4 1 1 2 5 5 4 3 7 14 15 14 13 12 11 11
43 43 42 40 41 40 35 30 29 29 23 12 6 8 10 12 12 11 11 9 5 5 6 10 11 10 10 6 5 10 5 2 10 9 6 10 8 8 10 11 15 12 6 6 4 6 9 5 8 8 4 13 16 9 6 7 7 7 6 8 9 6 5 4 1 1 1 1 2 5 4 4 3 3 4 4 4 5 4 3 8 12 14 13 12 12 11 11
43 42 41 39 40 42 40 36 35 34 23 9 7 10 12 12 8 6 9 10 8 9 10 10 8 7 9 6 6 11 5 1 10 9 6 10 9 10 11 9 14 16 11 8 3 5 6 3 6 5 2 10 9 4 6 5 3 6 6 8 4 1 3 2 1 2 1 6 4 6 5 5 2 3 6 7 5 6 6 6 9 13 15 14 12 12 12 11
40 35 33 35 40 42 43 41 40 35 19 7 10 12 12 11 6 3 8 11 10 14 11 7 8 9 10 8 7 11 8 4 10 9 5 8 7 10 13 9 13 19 17 10 3 3 5 2 3 5 4 4 2 1 3 1 1 5 6 6 4 3 2 2 4 2 3 8 5 6 9 7 6 4 5 7 7 8 8 8 10 12 14 14 12 12 13 12
36 27 22 31 41 41 43 45 41 28 10 5 12 14 11 10 9 7 6 9 12 14 10 9 9 10 10 9 8 13 11 7 10 9 6 7 5 9 15 9 10 18 18 12 3 2 5 4 2 3 3 4 2 2 4 1 1 0 2 4 4 3 5 5 5 5 6 8 5 6 10 8 8 6 5 9 11 10 11 10 12 14 15 14 13 14 15 13
28 15 11 28 42 41 44 46 33 15 5 7 11 14 11 9 12 10 5 7 11 12 12 12 10 9 10 10 8 12 12 9 11 9 7 7 5 9 15 10 9 15 17 13 6 3 5 5 3 0 1 5 5 5 8 7 4 1 2 4 3 2 4 5 5 4 5 7 6 6 6 6 8 8 10 13 13 12 13 12 13 15 16 15 14 15 15 14
16 5 5 26 43 45 48 40 18 6 7 9 10 11 9 7 9 10 8 9 9 8 11 13 13 11 11 12 9 10 10 9 10 8 7 8 7 8 13 12 9 12 15 14 8 4 4 5 4 1 2 5 5 7 11 11 9 7 6 8 6 3 1 2 5 5 4 6 6 7 6 3 3 5 9 13 12 13 14 14 13 13 15 15 15 15 15 14
8 5 4 27 48 50 42 22 6 7 9 10 12 13 10 8 9 10 12 12 9 5 4 8 13 11 8 12 11 9 7 7 8 7 5 9 9 6 10 13 11 10 11 11 9 7 5 6 6 4 4 7 5 4 5 4 6 9 9 10 10 8 5 4 6 6 4 4 4 5 8 3 3 1 1 4 6 9 13 13 11 12 15 15 15 16 16 15
5 5 6 32 54 48 27 9 6 9 9 12 16 12 6 7 10 12 13 11 9 5 2 4 11 13 9 10 11 8 8 6 8 9 6 9 13 8 8 12 13 13 11 7 8 5 2 3 7 5 4 5 2 3 2 2 2 5 7 8 8 8 8 8 7 4 4 3 1 3 7 3 2 3 4 4 4 2 7 11 10 11 13 14 14 15 15 14
4 4 7 34 58 45 15 7 10 9 9 13 15 12 6 6 11 12 12 13 9 6 6 5 8 11 9 7 8 9 10 8 10 12 10 10 10 3 4 10 12 13 10 5 5 4 3 1 6 5 2 2 3 3 2 2 2 6 7 6 7 10 10 7 3 1 4 5 3 3 8 4 2 3 3 3 3 3 1 6 9 9 10 12 13 14 14 12
2 1 1 23 51 42 13 8 12 10 12 13 12 14 11 7 10 12 11 14 11 6 8 7 5 7 6 4 6 10 12 10 10 11 10 9 5 3 3 9 12 11 7 2 3 6 5 4 6 5 5 4 4 4 4 4 5 7 8 8 8 10 8 2 1 0 5 7 8 7 9 3 3 1 2 1 1 1 1 3 7 8 9 10 11 11 12 11
1 1 2 8 24 23 9 8 12 12 13 14 14 18 15 8 9 12 11 12 9 7 9 7 6 7 4 3 5 9 12 12 9 8 6 4 2 2 1 5 7 7 3 2 3 6 5 4 7 8 10 10 8 6 6 6 6 5 9 12 13 13 10 5 2 6 8 6 8 10 9 2 4 1 2 2 3 4 4 4 5 5 7 9 10 10 11 10
2 1 1 2 4 4 2 1 8 11 12 13 12 15 17 13 8 8 11 11 10 10 7 2 4 7 5 6 8 9 13 12 4 3 6 5 3 1 1 1 1 1 2 4 6 6 2 4 10 13 13 9 4 2 0 6 9 9 12 15 15 16 15 8 5 9 7 3 8 13 9 5 3 5 6 5 6 6 5 6 5 5 6 8 9 10 10 9
3 2 3 3 1 2 1 1 4 10 13 14 10 10 17 19 10 6 8 10 10 11 6 1 4 9 9 11 13 10 11 10 3 3 6 4 3 3 2 1 1 0 3 3 5 5 2 6 12 15 16 9 2 2 1 4 9 13 15 17 16 15 16 13 13 12 5 4 12 11 8 10 10 9 8 8 7 6 6 7 7 6 7 7 8 9 10 9
3 2 3 3 1 3 5 4 5 9 13 14 9 8 15 20 16 10 8 8 8 10 7 2 7 14 15 15 13 9 9 9 7 7 6 4 4 4 3 1 1 1 3 2 2 2 3 7 10 12 16 14 4 2 2 2 3 6 11 16 17 17 19 19 20 17 9 9 16 8 10 14 12 9 11 10 8 8 7 5 4 5 6 7 8 9 11 11
2 1 0 2 0 2 4 2 3 7 12 13 9 10 14 17 20 16 8 5 7 10 11 10 13 16 15 14 11 9 10 10 10 10 8 6 6 5 3 1 2 2 3 3 2 1 3 6 5 6 12 15 9 4 2 1 1 3 6 11 14 18 20 19 19 18 13 15 17 6 5 10 7 7 11 7 4 4 3 3 3 5 7 8 9 10 11 11
2 2 2 1 0 1 0 1 3 5 8 9 9 11 12 16 21 18 9 8 10 11 12 17 20 16 14 13 11 11 12 12 11 10 9 9 7 6 5 4 4 4 4 5 3 1 3 4 3 4 6 11 8 5 3 2 2 3 7 10 11 11 13 14 15 13 12 17 17 10 8 9 4 4 4 3 4 3 4 3 3 4 6 8 9 9 10 11
1 1 4 5 3 3 2 2 4 5 5 7 8 9 12 17 20 16 7 4 8 8 11 19 21 13 10 13 15 15 12 9 7 6 8 10 8 7 6 4 6 8 7 6 4 4 5 3 3 3 7 9 6 7 6 3 1 5 13 16 12 7 7 9 11 12 13 16 15 12 12 9 4 5 2 2 3 4 4 4 4 4 6 8 9 10 10 11
0 2 1 4 3 4 4 3 5 6 4 5 8 9 11 13 13 12 6 1 2 3 4 12 15 9 8 13 16 11 4 4 3 3 4 4 4 4 4 5 8 10 9 7 4 3 6 5 3 5 7 4 2 6 7 5 2 7 14 13 13 12 10 9 10 12 13 11 9 11 12 6 3 5 4 3 4 5 5 6 5 5 6 8 9 9 9 10
Wind_Direction
188 192 200 203 205 213 220 227 225 215 215 217 217 215 216 219 211 215 226 245 257 268 275 282 287 292 304 310 328 332 331 339 336 319 330 103 131 137 134 115 108 96 82 11 288 278 264 232 339 306 244 183 322 25 76 356 331 264 243 235 228 181 152 138 166 132 103 126 129 123 79 289 243 149 135 244 224 234 257 123 98 76 74 75 71 38 17 15
193 192 196 207 216 225 232 240 241 231 223 224 227 221 226 230 221 233 236 250 252 243 250 262 276 292 308 317 335 333 334 338 308 302 34 153 153 139 128 117 108 91 62 344 305 293 287 280 353 275 242 179 3 336 207 345 310 279 284 243 203 78 85 64 93 90 83 122 121 118 72 294 300 33 67 271 221 219 249 150 135 111 97 86 65 41 29 27
197 200 202 213 226 234 238 248 255 250 235 233 242 233 233 231 225 238 236 244 248 242 251 263 284 300 311 327 338 333 338 325 266 87 83 157 149 133 133 125 114 98 67 345 322 311 315 343 313 277 257 207 68 267 223 4 317 297 287 257 94 85 95 84 91 85 59 73 121 134 83 281 286 344 306 298 285 257 248 111 145 125 91 69 54 35 27 29
206 217 223 226 233 240 245 253 258 256 241 230 237 238 234 226 225 236 236 245 251 250 266 278 295 304 315 335 334 335 338 300 240 93 127 158 143 138 140 134 133 93 61 332 319 326 304 297 282 283 267 221 109 240 250 37 330 321 311 338 91 113 136 121 110 81 66 46 328 95 143 268 256 313 294 298 289 255 96 48 32 58 51 47 47 32 26 28
214 219 228 233 230 236 244 249 253 254 240 223 230 236 234 228 227 240 243 255 263 261 280 288 298 307 320 335 332 341 330 283 109 111 155 160 152 149 151 149 136 81 71 268 307 291 254 255 254 261 261 242 149 223 92 54 330 276 34 40 88 133 134 124 111 73 69 29 307 235 250 282 65 275 273 269 282 301 72 27 22 38 42 42 34 28 28 29
222 224 228 233 237 239 239 242 246 246 239 226 230 236 240 240 237 249 245 248 267 269 279 286 300 310 320 329 331 336 309 284 117 164 171 168 173 161 165 157 123 85 95 271 285 255 251 243 239 243 264 268 261 282 72 73 315 283 123 91 92 6 33 119 123 106 112 251 233 246 289 337 270 259 248 257 296 62 65 39 56 55 57 52 42 39 35 36
230 230 233 237 241 245 243 243 242 242 240 230 229 234 238 238 239 250 239 241 260 264 275 284 298 306 320 323 319 302 275 291 139 190 183 185 192 182 183 158 134 106 185 275 267 257 254 246 250 268 274 263 250 99 76 98 254 284 178 137 122 16 292 130 136 156 199 240 243 292 320 267 254 251 208 206 86 88 90 81 82 78 83 75 65 56 44 48
235 233 237 240 243 247 246 246 246 245 238 231 228 229 235 236 237 239 235 248 254 254 271 279 290 302 322 311 303 273 253 127 133 193 198 205 202 202 198 164 172 135 260 274 285 290 262 251 267 283 269 279 340 139 96 261 225 261 299 134 143 223 234 209 193 211 217 238 245 245 259 252 247 245 207 173 111 108 110 98 100 102 100 88 67 55 48 48
240 238 239 242 247 249 249 249 248 244 235 232 228 229 239 238 236 238 238 251 251 256 265 266 271 258 235 270 290 279 255 107 131 198 204 212 214 209 196 185 210 206 243 257 269 272 249 260 278 292 303 20 297 247 122 265 230 13 16 131 215 227 228 229 236 236 222 229 217 222 245 240 212 201 203 154 125 127 126 123 119 121 101 77 62 48 40 39
241 243 241 245 253 253 255 253 247 243 235 232 230 233 245 241 240 244 240 244 244 255 255 254 252 227 238 248 249 264 119 112 153 202 205 212 210 201 201 203 207 225 239 221 236 248 258 308 28 336 310 323 219 123 153 277 355 32 344 277 261 252 241 225 240 246 229 229 209 226 251 206 155 212 212 137 140 147 146 146 127 124 88 62 52 47 35 33
242 244 244 248 253 256 262 258 250 240 232 234 235 237 252 248 244 247 241 241 241 248 250 245 231 219 243 246 246 260 139 138 167 185 196 201 191 189 209 207 197 227 248 229 227 252 308 319 85 235 293 161 166 164 192 345 22 351 314 284 254 242 238 220 232 239 223 229 207 226 250 162 160 224 189 129 147 164 165 154 140 145 107 84 69 62 43 37
243 243 245 249 252 257 264 263 257 243 233 235 234 236 251 250 248 253 242 238 240 242 243 234 217 207 232 251 252 236 161 161 171 178 186 189 190 193 201 203 196 214 256 259 212 195 285 222 211 238 8 318 202 165 157 106 322 304 290 285 269 248 239 214 206 208 211 204 173 208 235 199 197 196 128 131 153 167 180 175 161 160 135 130 112 105 89 57
245 243 242 246 250 254 258 264 260 251 243 236 237 246 250 249 252 254 242 237 242 236 233 229 207 184 238 259 215 172 181 180 178 178 183 175 177 189 193 203 203 205 245 275 168 167 195 166 244 256 37 292 270 91 135 157 242 276 247 268 291 270 233 179 160 172 197 165 158 205 257 218 188 160 127 140 162 174 192 192 179 171 153 149 124 126 106 79
244 243 241 241 242 251 260 267 266 257 250 242 251 261 253 252 251 245 238 236 239 231 224 218 194 174 240 259 117 190 206 192 179 172 175 161 147 160 170 187 197 202 210 199 158 154 158 144 243 176 81 314 57 117 211 199 215 255 249 235 255 271 198 142 152 181 188 156 173 211 271 235 158 144 138 149 172 185 202 194 183 182 160 158 144 151 127 101
244 243 241 236 231 244 254 263 270 259 247 244 256 268 263 256 248 233 232 229 230 219 200 196 187 183 258 246 129 220 207 191 185 181 179 161 162 165 144 143 133 145 148 144 148 134 132 159 203 184 108 50 156 194 242 230 219 226 254 247 224 242 178 147 157 192 194 152 182 208 267 236 152 153 143 147 183 194 213 203 181 188 171 173 171 159 154 126
247 244 241 234 225 237 247 260 272 258 241 240 247 266 265 251 232 212 215 199 183 170 154 182 189 216 282 243 139 200 199 197 195 197 195 176 183 173 136 131 117 114 115 117 130 125 130 173 234 296 137 175 207 225 252 248 238 215 231 260 246 239 234 171 154 188 205 160 188 206 257 289 148 154 145 149 186 195 214 211 187 192 182 181 182 167 172 153
247 245 242 231 223 243 252 266 277 256 223 217 236 275 269 207 176 185 162 144 142 133 138 185 172 210 267 182 181 215 177 184 187 192 201 188 182 163 146 143 132 123 116 116 135 147 163 177 161 257 211 222 226 222 245 246 246 223 212 249 262 252 253 239 158 154 176 199 219 214 240 272 160 150 160 165 181 197 209 209 196 193 191 186 182 177 184 174
245 245 242 227 222 244 250 265 274 240 188 186 228 247 190 163 169 171 155 147 121 100 193 200 174 226 236 183 184 145 124 147 166 172 188 182 168 164 162 157 148 144 141 143 175 184 195 190 195 238 223 216 217 208 222 238 262 271 245 251 265 248 240 253 228 153 177 206 242 237 239 257 200 156 168 171 178 204 208 202 199 196 194 187 191 191 181 178
245 243 239 224 222 239 243 260 262 204 165 186 205 145 111 122 175 195 198 187 169 181 231 180 188 230 242 159 132 86 107 132 145 157 169 164 157 162 165 155 160 172 175 177 187 188 196 189 196 236 228 211 211 211 225 246 277 296 289 284 281 267 254 260 173 127 190 229 247 252 253 260 238 176 170 172 179 202 205 192 196 202 199 193 196 194 178 180
245 239 233 220 219 233 240 255 242 180 166 196 191 158 146 188 210 205 194 209 221 229 288 185 199 231 77 130 124 111 118 130 141 154 157 158 159 163 165 161 169 199 215 204 184 170 194 213 213 225 230 226 220 219 233 257 291 296 284 277 270 267 269 269 132 117 143 252 254 257 258 262 260 223 175 168 177 195 202 196 198 200 193 198 194 184 179 161
243 236 231 220 218 227 234 251 227 179 177 191 201 216 231 222 225 226 182 212 224 232 255 239 218 264 125 116 143 147 132 154 175 157 160 163 166 174 174 175 186 205 214 204 160 121 192 223 227 231 239 246 236 226 235 252 259 264 267 266 262 255 264 266 138 127 142 243 262 264 263 258 263 254 179 161 182 197 204 201 202 198 184 191 187 178 170 136
238 233 224 213 214 220 226 252 223 181 182 199 215 234 288 320 313 22 1 246 227 222 237 238 237 256 158 122 162 174 211 199 176 167 170 171 182 196 180 178 207 208 179 172 158 178 212 230 235 237 237 188 208 231 234 245 250 255 253 254 259 255 265 258 151 138 162 240 269 271 270 263 264 254 178 173 196 190 191 191 187 187 182 186 183 173 164 145
232 225 212 202 208 211 218 251 215 182 198 212 217 231 276 310 25 41 322 276 258 208 216 218 219 224 194 165 177 183 212 210 202 183 172 176 191 207 193 186 216 212 175 188 207 218 223 236 235 224 183 172 206 214 222 242 244 241 238 244 252 246 260 257 171 140 183 231 279 292 282 270 267 245 173 177 193 158 148 158 155 178 183 180 172 167 165 158
227 216 204 197 205 211 220 244 206 199 218 221 227 234 255 297 145 21 293 269 266 206 198 205 214 222 204 169 171 185 213 225 226 182 169 181 181 187 209 204 218 220 201 207 214 230 238 254 201 192 187 212 223 209 210 232 239 231 228 233 251 248 248 257 256 74 236 233 241 269 281 271 255 235 197 158 162 165 166 173 177 186 184 167 156 160 162 156
224 213 203 195 205 211 210 217 207 213 221 222 239 240 238 240 143 273 293 268 253 212 169 193 199 214 192 148 161 180 216 226 228 165 168 187 180 165 204 210 224 226 217 216 220 239 241 160 127 179 186 210 220 217 207 217 247 243 224 222 242 259 262 267 281 317 284 260 196 214 272 279 244 228 200 149 173 194 180 187 191 184 181 177 172 171 163 150
222 210 200 197 206 202 190 200 209 212 217 225 244 239 224 221 175 207 252 274 259 204 137 179 179 182 171 154 159 150 224 224 204 125 163 189 199 174 206 193 212 239 227 220 227 250 226 138 158 181 183 200 214 232 212 203 242 259 236 213 231 258 267 266 269 257 273 285 145 183 260 277 276 227 168 148 194 195 183 198 195 181 180 179 176 172 165 159
220 207 198 200 205 195 177 182 199 193 209 236 243 233 218 208 201 226 232 270 260 171 139 180 182 172 164 159 161 150 207 176 100 117 160 182 190 172 234 195 177 236 223 197 227 228 156 163 181 184 198 209 215 237 211 192 230 256 28 107 214 246 258 252 251 240 259 291 213 192 236 272 277 241 150 160 195 193 195 206 195 184 181 177 173 167 164 163
215 204 198 199 206 204 192 181 186 189 208 241 233 219 209 197 203 225 226 253 260 127 134 162 100 118 125 150 171 163 106 121 131 160 91 107 189 167 225 215 207 209 181 183 222 208 148 181 189 188 204 217 218 238 189 187 222 248 82 76 140 238 262 248 242 243 256 279 252 205 191 250 267 219 150 173 201 209 206 198 193 188 180 176 173 166 162 157
209 201 199 200 209 213 206 195 187 198 215 231 248 205 192 188 203 224 240 239 211 108 127 134 124 117 124 154 182 154 86 88 147 121 94 129 228 228 228 232 242 216 189 207 231 322 76 190 206 202 212 219 190 57 95 196 217 145 120 101 91 109 235 220 237 251 248 253 254 222 187 224 271 231 169 177 214 226 205 186 187 183 178 177 173 166 162 156
204 198 199 202 208 209 203 202 200 199 212 231 246 189 175 181 199 193 221 230 185 121 105 135 156 150 147 157 180 183 159 89 88 130 148 158 181 231 281 267 260 226 195 222 248 270 99 85 318 225 225 201 110 70 33 20 131 141 146 125 123 159 157 194 231 242 255 252 245 225 204 214 270 256 193 183 207 215 185 169 177 176 175 177 173 169 164 159
205 199 199 203 208 203 197 199 201 198 209 230 209 167 166 190 216 202 214 243 348 141 135 151 150 147 161 165 174 189 182 139 136 153 155 147 172 195 191 181 207 216 214 232 242 214 168 173 180 159 110 112 113 96 51 46 126 161 172 167 171 184 171 211 218 198 248 256 232 213 207 209 232 252 191 137 131 179 172 167 173 174 175 175 173 171 165 161
208 203 202 207 209 203 198 195 195 196 200 192 175 164 174 181 211 227 208 89 68 186 154 154 160 165 177 177 167 171 170 163 165 172 173 169 180 191 195 194 172 185 228 224 211 203 207 208 179 127 147 185 165 141 101 98 189 195 187 181 196 210 198 219 214 202 236 246 111 95 183 214 236 249 240 174 127 152 165 169 173 171 173 173 172 169 163 160
211 207 207 210 209 204 198 193 192 193 183 166 172 187 207 185 213 224 202 163 187 162 126 144 166 173 177 180 173 159 162 173 172 180 186 181 192 201 206 209 193 201 244 200 191 193 205 208 182 165 189 199 192 182 170 172 186 194 190 183 197 211 223 231 220 221 235 217 91 103 165 234 254 253 242 213 125 112 104 144 170 169 170 171 168 163 157 157
214 210 211 213 211 207 198 191 194 191 178 166 173 192 191 209 224 214 203 206 191 93 110 139 151 164 178 185 167 157 165 181 171 174 181 183 202 207 204 212 209 216 249 188 196 198 217 244 184 179 171 176 193 210 207 174 174 195 197 197 209 214 231 239 226 237 240 140 127 156 172 217 216 175 207 119 94 92 78 98 158 163 164 162 158 156 154 158
214 211 212 212 211 209 199 193 195 188 176 166 176 186 191 216 226 210 202 196 163 125 126 138 141 160 189 194 166 171 187 197 174 176 188 192 207 207 200 206 205 205 204 206 205 191 228 258 164 160 142 164 184 215 204 166 170 193 198 210 222 233 249 260 281 277 351 1 204 187 220 246 195 116 106 112 117 129 117 125 154 160 160 156 157 160 160 164
209 208 211 208 207 207 197 192 192 182 172 169 184 192 205 218 217 194 192 188 170 144 131 143 158 174 195 190 176 188 202 166 172 180 204 207 222 222 210 203 195 198 199 197 190 184 223 262 135 134 132 169 184 200 176 177 174 171 192 207 206 336 297 259 222 104 78 277 243 175 220 259 224 192 152 145 156 148 145 159 163 163 162 161 165 166 167 171
202 204 207 205 205 202 193 189 184 175 170 188 197 200 213 219 213 184 191 188 159 140 141 173 187 187 195 192 184 186 180 152 173 185 192 191 222 221 210 211 195 198 204 203 221 212 216 262 155 170 177 159 355 352 166 311 44 152 193 189 121 34 321 266 251 225 217 256 250 182 214 225 209 213 151 154 177 170 168 171 168 168 168 171 173 170 172 173
199 200 207 209 204 196 189 186 179 169 165 211 210 215 222 219 218 212 194 175 151 150 177 208 194 187 195 196 183 174 174 170 175 188 186 180 217 198 188 201 201 200 206 208 241 230 206 237 197 175 176 129 79 204 188 223 243 200 245 169 139 222 224 200 228 249 232 244 258 217 217 219 214 206 156 178 194 181 173 172 175 178 177 179 178 172 173 172
196 196 221 211 199 190 185 182 175 164 181 206 209 220 223 219 216 211 198 178 164 170 199 211 203 201 203 203 179 160 175 183 167 177 197 190 203 181 175 187 200 201 200 196 208 208 194 226 224 36 69 133 148 202 198 189 186 316 284 198 183 250 229 203 211 238 239 244 261 239 215 217 219 201 178 187 193 178 171 175 185 186 182 183 179 175 175 176
193 199 230 196 190 186 180 177 172 165 197 206 213 224 228 227 214 207 215 214 196 192 212 215 210 209 208 210 192 157 179 197 172 181 207 186 181 181 179 186 192 195 194 191 202 203 181 216 225 123 104 159 180 205 204 194 184 186 202 200 193 187 224 269 236 228 244 253 256 256 255 238 192 191 190 189 185 174 171 177 186 187 185 185 181 179 179 179
190 235 197 177 181 178 172 173 188 186 194 213 220 230 235 231 223 211 212 223 230 231 237 228 219 215 202 204 200 161 164 200 189 193 210 191 199 202 182 187 186 168 172 190 206 204 186 203 208 175 175 203 206 196 206 210 193 194 200 200 198 192 184 224 229 211 219 254 255 267 275 266 106 57 191 165 167 170 172 175 178 183 185 186 185 184 182 179
202 243 169 168 173 170 165 183 198 178 197 212 214 225 224 216 230 218 199 210 238 245 238 239 228 224 204 197 202 169 157 192 199 200 217 207 211 213 179 184 180 156 152 181 200 191 137 197 212 200 189 199 158 82 64 347 278 247 235 218 209 202 196 210 223 191 179 226 307 305 280 279 79 30 34 53 47 101 162 169 170 180 184 185 188 186 183 181
212 223 154 167 170 165 164 210 186 180 210 209 213 225 216 208 222 214 196 197 211 220 214 222 228 229 220 192 188 176 175 195 199 198 214 215 210 205 148 168 168 159 161 174 174 145 75 158 207 208 185 142 116 113 102 49 284 257 248 229 218 216 209 214 244 149 185 205 176 228 254 253 66 20 27 46 34 35 153 175 167 172 178 183 187 184 182 179
207 165 115 176 173 169 175 206 186 195 209 201 210 219 221 227 215 207 201 196 194 196 210 219 216 222 226 183 182 186 184 199 209 201 207 210 197 55 95 167 167 167 179 182 153 166 169 178 188 203 223 210 186 188 194 192 204 224 225 216 218 220 209 191 50 280 238 213 183 219 250 224 107 10 358 71 149 143 212 193 175 172 174 177 181 181 180 170
189 141 338 204 182 177 192 202 187 199 203 196 203 212 218 229 215 211 208 199 197 194 204 218 205 198 203 185 201 202 197 208 219 206 203 205 176 41 14 187 174 173 181 44 102 160 179 184 176 193 217 217 211 216 210 186 177 207 217 208 208 207 199 189 184 224 239 207 178 218 244 197 106 179 242 215 204 203 192 188 192 185 175 172 173 178 178 167
196 212 221 242 215 200 258 195 182 196 200 196 201 210 215 219 213 208 207 207 209 204 206 219 184 192 189 184 201 210 210 216 213 175 198 197 156 75 346 268 202 172 116 109 143 156 167 211 197 205 220 216 202 253 196 131 154 193 205 199 201 202 201 203 215 225 225 184 209 225 230 238 205 189 217 217 201 211 198 180 193 195 181 176 173 175 176 170
198 205 176 191 269 229 255 350 189 197 197 196 198 200 208 216 216 193 203 214 205 199 210 24 171 199 193 190 206 214 208 208 182 160 198 183 121 83 52 33 319 82 104 137 175 165 168 222 212 216 232 234 131 53 357 150 182 202 200 197 201 202 201 205 218 220 170 166 240 225 187 228 228 185 201 213 194 210 211 190 195 194 185 178 169 171 176 172
202 178 164 195 247 216 228 227 203 209 202 195 203 208 206 213 215 203 203 214 203 194 201 214 212 213 204 194 202 203 195 199 203 203 194 147 130 129 89 43 248 144 121 149 215 161 180 228 218 213 234 241 208 116 263 234 221 219 204 201 200 198 200 205 217 221 191 210 247 227 171 218 227 185 196 201 189 205 206 186 173 155 162 166 163 173 181 179
171 116 99 256 234 186 226 211 175 217 210 196 208 221 212 212 216 213 197 186 206 202 198 212 221 214 209 205 200 195 192 194 205 208 188 159 162 156 140 189 199 154 141 166 205 168 195 231 212 196 233 241 227 200 194 187 270 269 232 217 206 203 206 209 217 223 218 233 249 249 205 235 237 194 197 185 168 185 141 107 117 135 155 163 168 181 186 187
173 160 146 174 198 146 142 109 163 224 219 201 210 219 217 217 218 216 195 179 207 205 197 217 224 212 206 212 210 211 208 201 207 206 174 163 179 183 185 189 156 146 168 180 181 177 210 218 151 134 232 240 221 190 176 190 223 273 264 245 225 207 202 210 222 223 226 241 248 253 263 259 231 180 174 105 84 97 103 132 161 158 164 167 177 189 190 195
291 286 139 146 182 186 169 168 196 225 225 208 213 214 216 221 219 215 206 192 215 209 200 218 226 218 208 217 222 227 225 213 215 203 168 172 188 190 194 178 145 154 176 184 172 170 197 208 98 137 222 235 207 184 190 176 80 273 260 244 220 191 178 200 220 216 215 231 240 244 253 247 180 136 99 66 119 152 176 186 173 170 174 176 189 195 195 201
112 335 125 141 168 183 182 188 200 217 223 210 216 215 216 225 220 208 212 245 220 226 229 226 227 221 211 219 224 223 195 121 108 104 123 143 132 123 145 157 156 164 172 175 169 168 185 187 154 178 209 234 203 177 170 133 117 252 251 225 193 194 202 207 220 221 216 221 227 233 242 244 142 148 174 192 184 188 205 202 188 187 183 186 200 200 200 205
Height
811 811 811 811 811 811 811 811 811 811 811 811 811 811 811 811 811 811 811 811 811 811 811 811 810 810 809 808 808 807 806 804 804 803 803 804 805 805 806 806 806 806 807 806 806 806 804 803 803 803 802 802 804 805 806 805 805 806 808 812 812 812 814 812 811 812 813 815 817 817 818 819 819 817 817 817 818 818 815 817 822 823 824 827 829 829 829 829
811 811 811 811 811 811 811 811 811 811 811 811 811 811 811 811 811 811 811 811 811 811 811 810 810 810 809 808 807 806 805 804 803 803 803 804 805 806 806 806 807 807 807 807 807 806 804 803 803 802 802 804 806 806 807 806 806 808 808 810 812 811 811 809 808 810 812 814 816 817 819 820 819 817 817 819 818 816 816 818 821 823 826 827 828 829 830 829
810 810 810 810 810 810 810 810 810 810 810 810 810 810 811 811 811 811 811 811 811 811 811 810 810 809 809 808 807 806 805 803 803 804 804 805 805 806 807 807 807 808 808 808 807 806 805 804 804 803 803 805 807 806 808 808 807 808 809 811 812 812 812 810 810 812 813 815 817 818 819 820 818 817 817 819 818 815 817 820 821 823 826 827 829 830 830 830
810 810 810 809 810 809 809 810 810 810 810 810 810 810 811 811 811 811 811 811 811 811 810 810 810 809 809 807 807 806 804 804 805 804 805 805 806 807 807 808 808 808 808 808 808 807 806 805 804 804 805 807 807 807 808 810 810 808 809 812 811 811 813 812 812 813 815 816 818 819 821 820 817 817 817 819 819 815 818 824 824 825 827 828 830 831 831 831
809 809 809 809 809 809 809 809 809 809 809 810 810 810 811 811 811 811 811 811 811 811 810 810 810 809 809 808 808 805 805 810 807 803 806 806 806 807 807 808 808 808 808 809 808 807 807 805 804 805 806 808 808 809 810 810 810 811 811 811 811 812 814 813 813 816 818 818 820 821 821 820 817 818 818 819 820 819 824 828 827 828 829 830 831 832 832 832
809 809 809 809 809 809 809 809 809 809 809 810 810 810 810 810 810 811 811 811 810 811 810 810 810 810 809 808 808 806 808 813 807 804 806 806 807 808 808 808 808 808 809 809 808 807 807 805 806 808 808 808 810 811 813 811 811 813 813 812 812 813 815 814 815 818 819 820 822 821 819 819 820 820 817 818 822 826 830 830 830 831 831 832 833 833 833 833
808 808 808 808 808 808 808 809 809 808 809 809 810 810 810 810 810 810 810 810 811 810 810 810 810 810 809 808 808 806 808 809 804 805 807 806 808 808 808 809 808 809 809 809 808 807 807 807 808 809 809 811 811 812 814 812 811 814 814 814 815 815 816 815 817 819 821 821 820 820 821 821 821 820 817 820 825 829 831 831 832 832 832 833 833 833 834 834
808 808 808 808 808 808 808 808 808 808 808 809 809 809 809 809 810 810 810 810 810 810 810 810 810 809 809 809 808 807 807 805 804 805 806 806 808 808 809 809 809 809 809 809 808 807 808 809 808 809 811 812 811 812 814 814 812 813 814 815 816 817 816 815 817 819 820 820 819 821 823 820 818 818 818 821 827 829 831 832 832 833 833 833 833 834 834 834
807 808 808 808 808 808 808 808 808 808 808 808 809 809 809 809 809 810 810 810 810 810 810 810 810 809 810 808 808 810 807 804 804 805 806 807 808 808 809 809 809 810 809 809 808 808 809 809 809 808 811 812 811 812 814 816 816 815 815 816 817 817 815 815 817 817 818 819 819 822 822 817 816 818 820 823 827 829 830 832 832 832 833 833 834 835 835 835
807 807 807 807 808 808 808 808 807 807 808 808 808 808 808 809 809 809 809 810 810 810 810 810 809 809 810 808 809 811 806 803 805 805 806 807 807 808 809 809 810 809 809 809 808 808 808 808 808 807 810 811 812 814 815 817 818 816 816 816 816 815 813 815 816 814 816 817 818 821 818 815 818 820 820 823 827 829 830 831 832 832 833 834 835 835 836 836
807 807 807 807 807 807 807 807 807 807 807 807 808 808 808 808 809 809 809 809 809 809 809 809 809 809 809 808 810 809 804 804 805 805 806 807 807 808 808 809 809 810 809 808 809 808 808 808 807 808 811 811 812 816 815 816 817 816 818 817 814 813 812 813 814 814 815 817 817 818 817 817 821 821 819 823 826 828 828 830 831 832 833 835 835 836 837 837
807 807 807 807 807 807 807 807 806 807 807 807 807 807 808 808 808 809 809 809 809 809 809 809 809 809 809 808 807 805 803 804 805 805 806 806 808 808 808 809 809 809 809 808 809 809 809 809 808 811 812 811 813 817 817 816 817 817 818 818 813 810 811 810 812 815 815 817 816 816 821 820 820 819 818 823 826 826 828 828 830 832 833 835 836 836 837 838
807 807 807 807 808 808 808 807 807 806 806 806 807 807 807 807 808 808 808 809 809 809 809 809 809 809 810 808 803 802 803 804 804 805 806 807 808 808 808 809 809 810 810 809 809 809 810 810 809 811 811 812 814 818 817 816 818 818 817 819 817 812 810 808 811 814 815 817 814 817 823 814 810 816 819 822 824 826 827 827 829 831 832 834 835 836 836 838
806 806 806 807 807 808 808 807 807 806 806 806 807 807 807 807 808 808 808 808 808 808 808 808 809 809 809 805 801 802 803 804 805 806 806 807 808 809 809 809 809 810 809 810 810 810 810 810 811 810 812 814 815 817 817 817 819 818 817 818 819 818 813 808 811 812 814 817 813 819 824 809 808 818 820 822 823 825 825 824 827 829 831 833 834 836 836 837
805 805 806 806 807 807 807 807 807 806 806 806 807 807 807 807 807 807 808 808 808 809 808 808 808 808 808 803 801 802 803 804 805 805 806 807 808 809 809 809 810 810 810 810 810 811 811 811 811 812 815 816 816 819 818 816 815 816 822 821 815 817 815 809 810 810 812 816 812 819 821 809 810 818 819 822 823 823 823 822 826 829 830 833 833 835 835 837
804 804 805 805 806 807 807 807 806 806 806 806 807 807 807 807 807 808 808 808 808 809 809 809 808 809 808 803 802 802 803 803 804 805 806 807 808 808 809 810 810 810 810 811 811 812 812 812 814 815 816 817 818 819 818 819 817 814 821 821 812 814 812 809 812 810 810 813 812 816 816 807 809 817 819 822 822 822 822 821 825 828 830 831 832 834 835 836
802 803 804 805 805 806 806 806 806 806 806 807 807 807 807 808 808 808 808 808 809 808 809 808 807 808 806 802 802 801 800 802 803 804 805 806 808 808 809 809 810 810 810 811 812 812 812 813 818 817 816 817 815 816 825 829 822 813 815 818 812 810 811 811 812 811 810 813 811 811 813 808 807 814 819 820 821 821 821 821 824 827 829 830 832 833 834 835
801 802 803 803 804 805 806 806 806 806 806 807 808 808 808 808 808 808 809 809 809 809 810 808 809 812 806 800 800 799 798 801 802 804 805 806 807 808 809 809 809 810 811 813 812 813 814 815 818 817 815 818 815 817 828 826 815 810 811 815 813 808 811 811 810 810 810 812 812 810 811 806 805 812 816 818 820 820 819 820 823 825 828 830 832 833 834 835
800 800 801 802 803 805 805 805 806 806 807 808 808 808 808 809 809 808 809 809 807 807 807 803 803 806 802 796 796 798 799 801 802 804 805 806 807 808 808 808 809 809 812 815 814 812 814 817 821 821 818 817 814 813 816 810 805 808 809 813 814 812 811 806 806 810 809 813 813 810 810 804 802 808 814 817 819 819 818 820 824 826 827 829 831 833 834 836
797 799 800 801 802 804 804 805 806 806 808 808 809 809 808 808 807 806 806 807 801 796 795 795 793 795 795 794 796 799 800 801 802 803 805 805 806 808 808 809 810 811 812 813 814 812 814 820 822 818 811 808 807 806 804 803 805 810 812 815 816 816 812 803 806 812 810 815 813 807 808 804 799 801 808 816 818 818 819 821 823 825 827 829 831 833 835 836
796 797 798 800 802 803 804 805 805 806 807 808 810 808 803 801 802 801 800 799 794 791 791 790 790 792 792 794 796 797 798 801 802 803 805 805 805 808 808 809 813 815 811 809 813 814 817 822 815 806 802 800 801 801 801 805 809 812 815 817 816 816 812 803 808 814 812 818 815 806 807 805 800 798 804 814 816 817 816 818 821 822 826 828 830 833 835 837
795 795 796 799 800 802 803 804 805 806 808 809 809 806 800 798 799 798 797 795 790 788 790 790 791 792 792 794 795 795 796 799 802 802 803 804 805 806 805 808 812 810 808 810 816 819 821 819 806 798 798 800 803 803 804 808 811 814 816 819 819 814 809 804 809 815 815 819 815 808 809 806 798 796 804 812 811 812 814 815 819 821 825 828 829 832 834 837
793 793 796 797 798 802 803 804 806 806 807 807 806 804 801 799 799 798 799 797 790 786 786 788 789 789 791 793 793 795 796 795 798 799 801 803 804 804 804 807 807 805 808 812 813 818 818 810 799 796 800 803 808 808 810 812 814 815 816 820 819 812 813 813 813 817 818 818 815 813 814 807 798 797 805 810 809 812 819 821 822 823 824 826 828 831 832 835
790 792 795 795 798 801 801 804 805 805 806 805 804 802 801 800 799 799 798 796 790 783 782 783 784 785 786 788 789 792 794 791 791 794 798 800 800 802 802 802 804 804 806 806 806 809 806 800 795 797 801 805 809 811 813 816 815 814 814 817 815 809 813 814 813 817 816 815 815 818 819 807 795 795 801 811 815 817 821 823 824 825 825 827 829 831 832 832
788 791 793 794 798 799 802 804 802 803 804 804 802 800 802 801 799 801 800 797 789 781 782 782 782 781 779 784 787 788 791 789 787 790 794 795 797 800 801 799 800 803 802 802 805 804 799 798 799 801 806 806 809 811 812 815 815 811 808 809 810 808 810 810 813 820 822 819 814 819 824 806 785 782 793 810 818 816 819 820 820 823 824 827 829 829 832 833
787 790 791 793 796 797 801 801 800 803 803 802 800 799 802 801 800 801 799 802 792 779 782 782 778 777 775 781 785 787 793 790 785 788 791 794 794 796 801 799 798 801 798 798 803 801 798 802 801 803 808 808 812 811 807 811 815 814 809 806 808 809 813 815 817 825 827 821 816 820 825 813 791 782 789 806 812 811 818 818 815 818 821 823 825 826 830 833
785 788 789 792 794 795 798 797 799 801 800 800 798 799 801 799 802 801 801 813 794 765 772 779 774 774 773 777 779 785 795 789 787 792 791 794 794 794 800 798 800 803 796 799 808 802 798 805 806 805 808 810 813 810 804 808 814 816 816 813 811 813 817 818 819 825 822 816 819 819 821 822 809 792 792 802 807 809 815 816 815 816 819 820 822 825 828 831
782 785 787 790 792 792 793 795 797 797 798 797 795 799 799 798 804 799 806 821 787 752 764 774 773 773 773 778 777 781 789 784 787 794 792 795 795 795 799 796 797 800 797 803 811 801 796 805 806 805 810 810 808 805 801 805 811 817 820 817 814 816 817 816 820 824 819 821 826 817 817 827 812 793 796 801 801 803 806 810 813 814 816 819 820 824 827 830
779 782 784 788 790 791 792 793 794 794 795 795 796 798 797 801 803 797 813 816 771 749 764 769 773 777 776 781 780 781 786 785 789 794 794 796 795 796 799 795 793 796 797 799 802 800 802 808 805 803 806 805 805 809 808 806 810 817 820 816 817 820 819 820 823 822 822 830 829 815 815 824 807 786 793 804 800 793 792 799 806 809 813 816 818 822 826 829
776 778 781 786 787 789 790 791 791 792 794 795 797 797 798 803 801 806 824 801 754 754 769 766 773 777 777 784 785 784 786 789 792 795 796 796 796 797 797 796 794 796 801 801 801 803 806 810 809 805 804 803 808 817 819 815 813 816 817 817 821 822 820 823 821 821 830 829 818 808 806 817 813 786 777 789 788 778 780 791 800 805 810 814 816 821 825 828
772 774 778 781 782 784 785 787 788 790 794 795 796 798 800 803 804 812 810 772 747 762 770 770 775 774 775 779 782 785 787 790 792 793 796 797 798 800 798 799 800 804 809 807 805 805 807 810 808 806 807 805 810 817 822 821 818 816 815 817 823 824 825 827 824 829 837 824 809 806 802 810 817 791 767 773 775 769 774 785 793 800 805 810 814 818 822 827
768 770 774 776 778 780 780 781 784 789 794 794 797 798 798 807 812 803 782 758 756 762 759 767 774 772 774 773 776 784 785 789 790 789 792 795 798 797 796 795 797 806 811 806 806 807 806 804 802 806 810 807 807 814 822 824 821 818 815 819 826 827 830 832 828 830 828 816 811 813 810 809 804 783 767 769 773 772 773 778 786 794 800 805 811 815 820 825
763 767 770 772 774 776 776 778 783 788 792 794 798 797 798 809 802 779 764 757 757 754 751 761 767 767 772 773 777 783 784 787 787 786 786 789 793 792 791 788 786 794 797 795 803 808 805 801 801 807 808 803 802 806 815 820 819 817 812 816 822 824 830 832 824 820 814 812 816 815 815 813 797 776 766 768 776 779 778 779 782 788 796 801 807 813 819 824
759 763 765 767 770 772 774 777 781 785 789 794 798 798 802 801 776 758 759 755 751 754 756 759 764 769 771 771 775 778 782 787 785 785 788 788 792 791 788 787 783 785 789 792 796 800 802 798 794 798 797 796 796 793 795 802 811 811 802 805 811 809 813 816 811 806 804 811 821 822 815 802 788 780 775 778 786 788 787 786 784 787 794 800 807 814 818 823
754 757 761 763 766 768 769 773 776 781 787 792 794 795 795 783 759 751 753 748 750 758 759 759 765 773 772 771 774 772 775 783 785 787 789 786 787 784 781 782 782 782 788 793 790 789 795 787 781 788 788 788 793 789 785 794 807 807 799 803 807 798 796 806 812 810 809 813 817 819 807 781 772 779 783 788 791 790 793 791 787 790 795 801 808 813 817 821
750 752 756 757 758 760 763 768 772 776 782 786 788 786 775 756 745 744 740 738 746 754 761 765 766 771 771 770 776 774 771 777 782 786 786 784 781 777 773 772 774 777 779 783 782 782 789 787 786 794 791 789 793 790 787 793 800 803 804 805 802 795 794 807 819 819 820 816 800 800 799 779 771 777 780 787 789 790 796 793 789 791 795 801 806 810 815 818
745 747 749 747 749 754 758 762 766 771 777 779 776 768 755 742 736 736 732 730 737 743 753 761 760 761 762 764 770 773 772 775 780 782 782 784 779 770 770 768 766 770 768 769 774 773 777 786 792 795 794 796 799 795 792 793 794 800 805 799 796 801 801 803 811 813 815 810 790 783 788 780 776 777 778 784 786 787 793 793 791 792 794 799 803 807 812 815
738 743 742 739 742 748 753 758 760 766 772 773 767 757 747 740 735 733 730 729 733 739 746 749 748 748 750 755 759 766 771 772 777 780 776 779 771 758 765 769 763 764 763 766 775 771 770 782 793 796 796 799 801 798 797 797 796 798 798 791 793 805 805 803 809 809 807 805 790 778 777 774 769 768 772 776 775 778 787 791 792 791 792 796 799 804 809 812
734 738 734 730 737 743 749 754 756 761 765 766 766 756 740 736 735 732 730 730 731 737 740 738 738 741 742 744 748 759 768 764 769 774 769 770 765 752 755 762 761 762 762 767 774 771 770 778 790 799 799 798 800 799 797 797 799 802 799 792 791 796 795 794 796 794 795 797 788 778 777 769 755 749 755 760 760 766 778 786 788 787 788 791 794 799 804 807
729 732 724 721 731 738 745 751 752 755 756 757 760 751 737 735 736 732 730 730 729 732 734 731 733 737 739 738 739 751 762 759 760 766 762 758 759 753 750 753 757 761 761 765 769 769 773 776 783 799 804 799 796 792 785 785 791 798 799 795 793 794 794 793 788 782 786 791 784 780 775 758 744 740 742 745 748 756 767 776 781 783 784 786 789 793 797 801
726 727 717 715 725 732 741 747 745 745 749 753 753 745 738 736 735 733 731 731 730 728 729 730 729 731 735 737 736 741 755 759 757 759 757 752 750 749 746 745 749 757 763 771 771 768 772 774 777 793 801 793 785 782 781 781 782 785 786 784 784 786 791 797 792 782 783 786 780 781 774 754 746 749 746 744 746 749 757 767 773 778 781 783 785 788 791 796
723 721 713 712 718 726 736 738 734 737 743 744 739 736 736 735 733 733 732 733 735 731 731 732 728 726 730 732 732 736 747 756 756 754 752 746 741 740 740 740 743 750 759 767 767 763 766 770 773 781 785 784 782 784 789 789 785 782 781 777 776 778 781 787 786 781 785 787 781 785 781 761 754 759 757 756 756 754 756 761 767 773 777 779 782 784 789 793
717 715 714 713 713 719 730 731 728 733 734 731 731 731 733 733 733 733 731 732 736 734 733 733 728 727 728 728 731 735 739 746 749 747 746 742 738 741 742 741 744 748 753 759 762 764 768 772 775 777 777 779 783 786 789 791 790 786 781 778 775 772 770 773 775 775 781 782 781 788 783 763 759 766 766 766 767 766 763 760 763 770 773 777 780 783 787 791
715 715 716 715 712 713 719 720 723 728 726 727 733 733 731 730 730 730 729 729 730 731 733 732 727 727 728 728 730 732 734 740 742 741 740 738 741 750 750 744 745 748 751 755 757 759 766 771 775 780 782 783 785 787 788 790 790 783 776 775 774 769 769 774 777 778 777 772 772 780 771 756 760 769 768 768 768 768 767 764 763 767 770 775 779 782 785 789
717 717 716 715 712 710 708 707 713 720 723 727 733 731 729 729 725 724 726 726 726 727 728 727 724 724 729 731 732 730 728 730 735 739 741 740 746 756 756 750 748 748 750 754 753 754 761 765 767 774 776 773 772 770 766 769 777 777 772 770 770 770 772 773 776 780 776 768 767 769 759 753 761 766 764 765 766 765 765 767 766 766 769 773 777 780 783 787
715 715 716 714 711 710 709 706 708 715 721 727 729 727 727 726 721 721 724 725 725 725 724 725 725 726 731 734 733 733 729 727 733 740 741 741 749 759 760 757 756 754 754 756 754 757 763 762 758 758 754 750 752 752 747 750 761 768 767 767 767 766 768 771 774 773 767 766 765 757 751 754 761 762 761 761 762 762 761 766 769 769 770 772 775 778 781 785
709 710 714 712 709 710 711 710 710 710 712 720 721 718 720 721 720 723 725 722 721 723 726 729 728 726 729 730 730 732 731 731 738 741 739 742 753 763 764 761 761 761 759 758 756 758 764 762 754 752 749 744 748 754 751 749 753 755 758 763 765 764 766 771 770 760 759 766 760 745 749 756 755 755 757 756 758 759 758 761 765 767 770 772 774 778 781 784
704 705 706 705 706 708 707 707 710 707 706 713 715 712 715 718 718 720 722 720 719 721 726 730 728 723 721 722 725 729 732 736 739 738 738 745 756 763 765 764 763 764 762 761 760 759 760 756 750 751 751 746 749 757 755 752 753 752 752 755 758 761 764 765 762 755 755 759 749 740 748 752 747 749 752 750 752 754 753 756 761 765 769 773 775 778 780 782
702 704 706 705 705 707 705 704 708 709 707 711 715 714 714 715 714 711 714 719 721 720 721 723 720 718 718 719 721 725 728 731 733 733 736 744 752 756 759 760 761 765 764 762 763 763 759 752 750 753 754 749 751 756 757 757 758 756 753 752 752 754 756 758 758 756 756 752 744 744 751 749 744 744 745 746 748 750 754 759 762 765 770 773 776 778 779 781
697 698 703 707 706 707 707 706 708 711 709 710 715 715 713 712 710 706 708 714 717 715 716 715 710 711 717 718 719 721 719 718 722 725 730 739 746 748 748 746 752 764 767 763 764 766 761 755 754 757 758 754 754 759 763 762 760 760 758 753 751 751 754 758 758 757 760 756 748 751 756 752 745 742 744 750 753 754 757 761 762 766 769 772 775 776 777 779
695 693 694 702 706 707 708 708 710 713 713 712 712 712 711 709 706 705 707 710 710 710 711 709 706 710 716 717 717 716 714 715 718 721 724 729 734 736 737 738 745 758 764 762 761 763 762 762 763 765 760 753 756 765 767 767 771 772 761 751 752 754 755 757 756 754 756 754 754 758 757 750 746 746 749 755 756 755 757 758 761 765 768 771 773 773 775 776
695 694 691 695 703 706 707 709 712 713 710 708 707 707 707 706 704 707 712 713 712 711 710 707 707 712 716 716 715 714 717 722 725 727 729 730 730 732 736 738 740 746 753 758 759 760 760 760 763 764 756 755 764 769 769 775 777 764 744 737 746 753 753 753 752 750 750 752 755 756 748 743 747 750 753 756 756 756 756 756 759 762 766 770 770 770 771 772